�������l�o���
Date,Time,MP-1(��Sv/h),MP-2(��Sv/h),MP-3(��Sv/h),MP-4(��Sv/h),MP-5(��Sv/h),MP-6(��Sv/h),MP-7(��Sv/h),MP-8(��Sv/h),����,����(m/s),���J
2021/07/25,00:00,0.637,0.953,0.604,1.156,0.836,0.377,0.652,0.605,��쐼,3.1,��
2021/07/25,00:10,0.636,0.952,0.605,1.155,0.835,0.378,0.653,0.607,��쐼,2.6,��
2021/07/25,00:20,0.639,0.953,0.604,1.156,0.835,0.376,0.653,0.607,��쐼,3.3,��
2021/07/25,00:30,0.635,0.953,0.605,1.157,0.836,0.377,0.652,0.607,��,2.9,��
2021/07/25,00:40,0.638,0.952,0.606,1.156,0.836,0.377,0.651,0.607,��,2.5,��
2021/07/25,00:50,0.637,0.953,0.605,1.158,0.837,0.377,0.653,0.606,��,2.3,��
2021/07/25,01:00,0.637,0.952,0.604,1.159,0.834,0.377,0.653,0.607,��,2.3,��
2021/07/25,01:10,0.638,0.951,0.605,1.159,0.835,0.376,0.652,0.607,��,2.0,��
2021/07/25,01:20,0.637,0.952,0.606,1.154,0.836,0.377,0.650,0.605,��,1.7,��
2021/07/25,01:30,0.637,0.952,0.603,1.156,0.835,0.376,0.651,0.606,��,1.7,��
2021/07/25,01:40,0.637,0.954,0.606,1.156,0.835,0.376,0.651,0.607,��쐼,1.9,��
2021/07/25,01:50,0.635,0.954,0.606,1.158,0.834,0.377,0.653,0.608,��,2.2,��
2021/07/25,02:00,0.637,0.953,0.605,1.157,0.835,0.377,0.652,0.607,��,2.3,��
2021/07/25,02:10,0.638,0.951,0.605,1.157,0.834,0.377,0.652,0.608,��,2.5,��
2021/07/25,02:20,0.637,0.953,0.606,1.156,0.836,0.378,0.653,0.609,��,2.0,��
2021/07/25,02:30,0.636,0.952,0.604,1.156,0.835,0.376,0.652,0.607,��,2.0,��
2021/07/25,02:40,0.637,0.949,0.605,1.157,0.834,0.376,0.653,0.607,��,1.5,��
2021/07/25,02:50,0.637,0.952,0.605,1.157,0.833,0.377,0.652,0.607,��,1.4,��
2021/07/25,03:00,0.636,0.950,0.603,1.155,0.837,0.375,0.653,0.607,��,2.0,��
2021/07/25,03:10,0.636,0.952,0.605,1.157,0.834,0.377,0.652,0.608,��,1.7,��
2021/07/25,03:20,0.636,0.952,0.604,1.158,0.835,0.376,0.653,0.608,��,2.2,��
2021/07/25,03:30,0.636,0.953,0.604,1.157,0.833,0.376,0.651,0.606,��,1.7,��
2021/07/25,03:40,0.636,0.953,0.603,1.157,0.834,0.377,0.653,0.606,��,1.5,��
2021/07/25,03:50,0.637,0.951,0.603,1.159,0.836,0.377,0.652,0.608,��쐼,0.9,��
2021/07/25,04:00,0.636,0.953,0.605,1.156,0.835,0.378,0.652,0.605,��쐼,0.8,��
2021/07/25,04:10,0.635,0.954,0.604,1.158,0.836,0.377,0.653,0.608,��쐼,0.9,��
2021/07/25,04:20,0.635,0.952,0.603,1.156,0.834,0.376,0.652,0.606,-,CALM,��
2021/07/25,04:30,0.637,0.951,0.603,1.158,0.833,0.376,0.654,0.606,��,0.6,��
2021/07/25,04:40,0.635,0.953,0.605,1.156,0.834,0.376,0.655,0.606,-,CALM,��
2021/07/25,04:50,0.636,0.952,0.603,1.155,0.835,0.376,0.653,0.606,-,CALM,��
2021/07/25,05:00,0.637,0.953,0.603,1.156,0.836,0.377,0.651,0.607,-,CALM,��
2021/07/25,05:10,0.635,0.952,0.604,1.157,0.834,0.376,0.654,0.605,-,CALM,��
2021/07/25,05:20,0.636,0.953,0.603,1.156,0.833,0.376,0.651,0.607,-,CALM,��
2021/07/25,05:30,0.636,0.953,0.604,1.158,0.833,0.376,0.653,0.606,-,CALM,��
2021/07/25,05:40,0.635,0.951,0.604,1.158,0.833,0.375,0.652,0.608,�k�k��,0.8,��
2021/07/25,05:50,0.636,0.951,0.603,1.158,0.834,0.377,0.654,0.608,-,CALM,��
2021/07/25,06:00,0.637,0.953,0.605,1.155,0.835,0.375,0.653,0.606,-,CALM,��
2021/07/25,06:10,0.636,0.952,0.603,1.155,0.833,0.378,0.654,0.607,-,CALM,��
2021/07/25,06:20,0.635,0.955,0.602,1.156,0.835,0.376,0.653,0.606,-,CALM,��
2021/07/25,06:30,0.636,0.953,0.605,1.158,0.832,0.376,0.654,0.607,�k�k��,0.9,��
2021/07/25,06:40,0.638,0.953,0.604,1.156,0.835,0.378,0.653,0.608,�k�k��,0.6,��
2021/07/25,06:50,0.636,0.952,0.604,1.160,0.832,0.377,0.653,0.608,-,CALM,��
2021/07/25,07:00,0.637,0.955,0.604,1.157,0.836,0.376,0.653,0.607,-,CALM,��
2021/07/25,07:10,0.639,0.953,0.604,1.158,0.834,0.378,0.655,0.606,�쓌,1.1,��
2021/07/25,07:20,0.638,0.953,0.603,1.157,0.835,0.377,0.653,0.608,���쓌,1.5,��
2021/07/25,07:30,0.636,0.952,0.605,1.160,0.834,0.375,0.654,0.610,��,1.5,��
2021/07/25,07:40,0.635,0.952,0.603,1.156,0.832,0.377,0.653,0.607,��,1.2,��
2021/07/25,07:50,0.636,0.952,0.603,1.155,0.837,0.377,0.654,0.608,���k��,1.1,��
2021/07/25,08:00,0.636,0.952,0.603,1.157,0.834,0.377,0.652,0.608,���k��,0.8,��
2021/07/25,08:10,0.637,0.951,0.603,1.157,0.835,0.377,0.653,0.610,���쓌,1.7,��
2021/07/25,08:20,0.637,0.952,0.603,1.158,0.833,0.377,0.652,0.608,���쓌,1.5,��
2021/07/25,08:30,0.634,0.954,0.602,1.158,0.834,0.377,0.654,0.605,���쓌,1.5,��
2021/07/25,08:40,0.637,0.952,0.602,1.159,0.835,0.378,0.654,0.605,���쓌,2.0,��
2021/07/25,08:50,0.637,0.951,0.603,1.157,0.834,0.377,0.653,0.607,���쓌,1.7,��
2021/07/25,09:00,0.636,0.953,0.604,1.158,0.833,0.377,0.654,0.607,���쓌,2.6,��
2021/07/25,09:10,0.636,0.952,0.602,1.155,0.834,0.374,0.653,0.606,��,2.3,��
2021/07/25,09:20,0.637,0.955,0.603,1.157,0.834,0.375,0.652,0.606,���쓌,2.5,��
2021/07/25,09:30,0.636,0.951,0.602,1.156,0.835,0.376,0.654,0.606,���쓌,2.8,��
2021/07/25,09:40,0.636,0.953,0.601,1.157,0.835,0.376,0.655,0.607,���쓌,3.0,��
2021/07/25,09:50,0.637,0.951,0.604,1.157,0.836,0.374,0.653,0.606,�쓌,3.1,��
2021/07/25,10:00,0.638,0.953,0.602,1.158,0.835,0.375,0.654,0.606,���쓌,3.1,��
2021/07/25,10:10,0.636,0.953,0.601,1.156,0.837,0.375,0.654,0.607,���쓌,3.0,��
2021/07/25,10:20,0.638,0.953,0.604,1.157,0.835,0.375,0.655,0.606,���쓌,2.8,��
2021/07/25,10:30,0.636,0.954,0.604,1.157,0.834,0.375,0.652,0.606,���쓌,3.1,��
2021/07/25,10:40,0.638,0.951,0.603,1.157,0.833,0.374,0.653,0.606,���쓌,2.6,��
2021/07/25,10:50,0.637,0.953,0.602,1.158,0.835,0.376,0.652,0.604,���쓌,2.8,��
2021/07/25,11:00,0.636,0.952,0.605,1.156,0.837,0.376,0.655,0.605,���쓌,2.6,��
2021/07/25,11:10,0.638,0.950,0.602,1.156,0.837,0.377,0.655,0.606,���쓌,2.9,��
2021/07/25,11:20,0.639,0.953,0.603,1.155,0.837,0.374,0.651,0.606,���쓌,2.6,��
2021/07/25,11:30,0.638,0.953,0.603,1.157,0.837,0.377,0.654,0.606,���쓌,2.8,��
2021/07/25,11:40,0.639,0.953,0.602,1.156,0.835,0.376,0.653,0.607,�쓌,3.5,��
2021/07/25,11:50,0.637,0.953,0.603,1.158,0.837,0.376,0.653,0.605,���쓌,3.1,��
2021/07/25,12:00,0.638,0.954,0.603,1.156,0.836,0.376,0.654,0.607,��,3.1,��
2021/07/25,12:10,0.637,0.952,0.604,1.158,0.838,0.377,0.653,0.606,���쓌,3.0,��
2021/07/25,12:20,0.639,0.954,0.605,1.155,0.837,0.376,0.654,0.609,���쓌,3.4,��
2021/07/25,12:30,0.638,0.954,0.604,1.158,0.838,0.377,0.654,0.606,���쓌,3.1,��
2021/07/25,12:40,0.637,0.952,0.604,1.158,0.837,0.375,0.655,0.606,��,3.4,��
2021/07/25,12:50,0.637,0.955,0.603,1.158,0.837,0.377,0.654,0.607,���쓌,2.9,��
2021/07/25,13:00,0.639,0.955,0.606,1.156,0.839,0.375,0.653,0.608,�쓌,3.5,��
2021/07/25,13:10,0.640,0.952,0.603,1.159,0.838,0.377,0.653,0.607,���쓌,2.8,��
2021/07/25,13:20,0.640,0.953,0.603,1.159,0.838,0.375,0.655,0.609,���쓌,4.0,��
2021/07/25,13:30,0.640,0.954,0.604,1.158,0.839,0.376,0.653,0.608,�쓌,3.1,��
2021/07/25,13:40,0.638,0.953,0.606,1.157,0.839,0.376,0.656,0.608,�쓌,3.7,��
2021/07/25,13:50,0.640,0.955,0.604,1.159,0.839,0.376,0.654,0.609,���쓌,2.3,��
2021/07/25,14:00,0.637,0.954,0.605,1.158,0.837,0.376,0.654,0.609,���쓌,3.0,��
2021/07/25,14:10,0.638,0.954,0.604,1.160,0.839,0.377,0.654,0.607,���쓌,3.8,��
2021/07/25,14:20,0.639,0.954,0.603,1.157,0.839,0.377,0.651,0.609,�쓌,3.2,��
2021/07/25,14:30,0.641,0.954,0.604,1.155,0.840,0.376,0.653,0.608,���쓌,2.8,��
2021/07/25,14:40,0.639,0.953,0.602,1.159,0.839,0.376,0.654,0.608,���쓌,3.4,��
2021/07/25,14:50,0.640,0.955,0.604,1.160,0.838,0.376,0.655,0.607,�쓌,3.5,��
2021/07/25,15:00,0.640,0.956,0.607,1.161,0.838,0.377,0.655,0.607,�쓌,3.3,��
2021/07/25,15:10,0.639,0.954,0.606,1.159,0.838,0.376,0.656,0.609,�쓌,3.9,��
2021/07/25,15:20,0.637,0.953,0.608,1.158,0.836,0.377,0.656,0.608,���쓌,3.5,��
2021/07/25,15:30,0.638,0.954,0.608,1.159,0.838,0.377,0.656,0.607,���쓌,3.0,��
2021/07/25,15:40,0.641,0.955,0.606,1.161,0.838,0.376,0.655,0.606,�쓌,2.8,��
2021/07/25,15:50,0.639,0.955,0.605,1.162,0.839,0.376,0.655,0.606,�쓌,3.4,��
2021/07/25,16:00,0.638,0.954,0.606,1.160,0.838,0.376,0.656,0.607,�쓌,3.3,��
2021/07/25,16:10,0.639,0.955,0.607,1.161,0.840,0.377,0.655,0.607,�쓌,3.2,��
2021/07/25,16:20,0.640,0.955,0.606,1.161,0.836,0.376,0.656,0.608,�쓌,3.4,��
2021/07/25,16:30,0.639,0.954,0.607,1.159,0.838,0.376,0.656,0.606,�쓌,2.6,��
2021/07/25,16:40,0.640,0.953,0.606,1.163,0.838,0.376,0.656,0.606,��쓌,2.5,��
2021/07/25,16:50,0.640,0.954,0.605,1.162,0.839,0.375,0.654,0.606,�쓌,2.9,��
2021/07/25,17:00,0.639,0.954,0.606,1.160,0.838,0.377,0.654,0.608,��쓌,2.3,��
2021/07/25,17:10,0.638,0.956,0.605,1.161,0.838,0.376,0.654,0.607,�쓌,2.8,��
2021/07/25,17:20,0.638,0.954,0.606,1.162,0.837,0.376,0.654,0.607,���쓌,2.6,��
2021/07/25,17:30,0.639,0.954,0.606,1.163,0.840,0.377,0.655,0.607,���쓌,2.6,��
2021/07/25,17:40,0.638,0.953,0.603,1.162,0.837,0.375,0.654,0.606,���쓌,2.8,��
2021/07/25,17:50,0.639,0.954,0.603,1.160,0.838,0.375,0.652,0.608,��쓌,2.6,��
2021/07/25,18:00,0.639,0.954,0.604,1.162,0.837,0.376,0.652,0.606,��쓌,2.9,��
2021/07/25,18:10,0.639,0.955,0.605,1.160,0.839,0.375,0.654,0.607,�쓌,2.5,��
2021/07/25,18:20,0.640,0.954,0.603,1.159,0.838,0.376,0.653,0.608,�쓌,3.4,��
2021/07/25,18:30,0.639,0.954,0.604,1.160,0.837,0.375,0.654,0.608,��쓌,3.0,��
2021/07/25,18:40,0.640,0.956,0.604,1.158,0.839,0.376,0.654,0.607,�쓌,2.5,��
2021/07/25,18:50,0.638,0.953,0.605,1.161,0.838,0.375,0.652,0.606,�쓌,2.0,��
2021/07/25,19:00,0.640,0.954,0.604,1.159,0.838,0.376,0.653,0.608,��,2.8,��
2021/07/25,19:10,0.638,0.955,0.604,1.160,0.839,0.376,0.654,0.607,��쓌,2.6,��
2021/07/25,19:20,0.640,0.955,0.604,1.159,0.841,0.377,0.652,0.606,�쓌,2.3,��
2021/07/25,19:30,0.638,0.956,0.606,1.160,0.840,0.377,0.654,0.607,��쓌,1.9,��
2021/07/25,19:40,0.639,0.957,0.606,1.161,0.839,0.377,0.654,0.608,��쓌,2.0,��
2021/07/25,19:50,0.640,0.955,0.605,1.160,0.839,0.378,0.655,0.607,��쓌,2.0,��
2021/07/25,20:00,0.639,0.955,0.605,1.162,0.837,0.377,0.653,0.607,��쓌,1.7,��
2021/07/25,20:10,0.639,0.956,0.606,1.161,0.841,0.378,0.654,0.607,��,1.5,��
2021/07/25,20:20,0.639,0.955,0.606,1.161,0.838,0.378,0.654,0.609,��쓌,1.4,��
2021/07/25,20:30,0.639,0.954,0.605,1.161,0.839,0.377,0.653,0.608,��쓌,1.7,��
2021/07/25,20:40,0.640,0.956,0.605,1.159,0.839,0.376,0.653,0.608,��쓌,1.4,��
2021/07/25,20:50,0.641,0.956,0.607,1.159,0.838,0.377,0.653,0.607,��,1.2,��
2021/07/25,21:00,0.639,0.955,0.606,1.161,0.840,0.377,0.654,0.608,��,1.5,��
2021/07/25,21:10,0.640,0.953,0.606,1.160,0.841,0.377,0.654,0.607,��,1.1,��
2021/07/25,21:20,0.639,0.957,0.605,1.159,0.839,0.379,0.654,0.608,��,0.9,��
2021/07/25,21:30,0.641,0.956,0.604,1.161,0.840,0.377,0.654,0.607,��쓌,0.6,��
2021/07/25,21:40,0.639,0.956,0.604,1.162,0.841,0.377,0.653,0.609,�쓌,0.6,��
2021/07/25,21:50,0.639,0.955,0.607,1.160,0.840,0.377,0.655,0.609,-,CALM,��
2021/07/25,22:00,0.640,0.955,0.607,1.160,0.839,0.377,0.653,0.607,�k��,0.6,��
2021/07/25,22:10,0.640,0.955,0.606,1.162,0.839,0.377,0.654,0.606,�k�k��,1.2,��
2021/07/25,22:20,0.640,0.956,0.607,1.161,0.840,0.378,0.654,0.607,�k,0.9,��
2021/07/25,22:30,0.641,0.956,0.606,1.161,0.839,0.375,0.653,0.607,�k�k��,1.2,��
2021/07/25,22:40,0.640,0.956,0.607,1.162,0.839,0.377,0.654,0.607,�k�k��,1.7,��
2021/07/25,22:50,0.640,0.957,0.606,1.164,0.840,0.377,0.656,0.607,�k�k��,2.3,��
2021/07/25,23:00,0.640,0.956,0.606,1.163,0.839,0.377,0.654,0.606,�k�k��,2.8,��
2021/07/25,23:10,0.640,0.956,0.606,1.162,0.840,0.377,0.655,0.607,�k�k��,2.5,��
2021/07/25,23:20,0.639,0.958,0.607,1.162,0.839,0.376,0.654,0.607,�k,1.7,��
2021/07/25,23:30,0.640,0.956,0.607,1.164,0.838,0.377,0.652,0.607,�k,1.5,��
2021/07/25,23:40,0.640,0.958,0.606,1.163,0.839,0.378,0.654,0.610,�k�k��,2.3,��
2021/07/25,23:50,0.640,0.954,0.607,1.162,0.840,0.378,0.654,0.609,�k�k��,4.1,��
